Regional Weather Roundup
Issued by NWS Upton, NY

Current Version | Previous Version | Graphics & Text | Print | Product List | Glossary Off
Versions: 1 2 3 4 5 6 7 8 9 10 11 12 13 14 15 16 17 18 19 20 21 22 23 24 25 26 27 28 29 30 31 32 33 34 35 36 37 38 39 40 41 42 43 44 45 46 47 48 49 50

000
ASUS41 KOKX 301505
RWROKX

REGIONAL WEATHER ROUNDUP
NATIONAL WEATHER SERVICE NEW YORK NY
1100 AM EDT SAT AUG 30 2014

NOTE: "FAIR" INDICATES FEW OR NO CLOUDS BELOW 12,000 FEET WITH NO
SIGNIFICANT WEATHER AND/OR OBSTRUCTIONS TO VISIBILITY.

NYZ071-072-176-178-NJZ106-104-301600-
NEW YORK CITY METRO AREA


CITY           SKY/WX    TMP DP  RH WIND       PRES   REMARKS
CENTRAL PARK   MOSUNNY   75  55  49 VRB3      30.28F
LAGUARDIA APRT MOSUNNY   75  55  49 S10       30.25F
KENNEDY INTL   PTSUNNY   76  58  53 S10       30.28S
NEWARK/LIBERTY MOSUNNY   75  56  51 VRB5      30.26F
BRNX BOT. GARD   N/A     75  54  46 SW2       30.28F
TETERBORO      MOSUNNY   75  56  51 S9        30.25S
$$

NYZ177-179-078>081-301600-
LONG ISLAND NEW YORK

CITY           SKY/WX    TMP DP  RH WIND       PRES   REMARKS
FARMINGDALE    PTSUNNY   74  58  57 S12       30.27S
ISLIP          PTSUNNY   73  60  63 SE15      30.26S
SHIRLEY        MOSUNNY   73  59  61 S12       30.29S
WESTHAMPTON    MOSUNNY   74  58  57 S9G18     30.30S
MONTAUK POINT    N/A     72  59  63 SE7       30.31S
$$

NYZ052-065-067-301600-
HUDSON VALLEY

CITY           SKY/WX    TMP DP  RH WIND       PRES   REMARKS
WHITE PLAINS   MOSUNNY   73  56  54 S10       30.26F
NEWBURGH       SUNNY     72  55  56 VRB5      30.27F
MONTGOMERY     PTSUNNY   73  56  54 VRB6      30.25F
POUGHKEEPSIE   SUNNY     73  54  51 S8        30.24F
ALBANY         MOSUNNY   71  54  54 S15G23    30.22F
$$

NJZ001-105-106-008-010-013-015-019>022-104-301600-
NEW JERSEY

CITY           SKY/WX    TMP DP  RH WIND       PRES   REMARKS
NEWARK/LIBERTY MOSUNNY   75  56  51 VRB5      30.26F
TETERBORO      MOSUNNY   75  56  51 S9        30.25S
CALDWELL       PTSUNNY   72  55  55 VRB5      30.26F
MORRISTOWN     MOSUNNY   75  59  57 SW7       30.27S
SOMERVILLE     SUNNY     74  58  57 VRB7      30.24F
LINDEN         FAIR      79  59  50 SW3       30.27F
SUSSEX         MOSUNNY   74  58  57 VRB6      30.25F
ANDOVER          N/A     71  57  61 SW7       30.26F
TRENTON        CLOUDY    72  62  71 S8        30.25F
MILLVILLE      CLOUDY    74  63  68 SE7       30.26S
ATLANTIC CITY  CLOUDY    75  63  66 S12       30.26S
WRIGHTSTOWN    PTSUNNY   75  63  64 S5        30.24S
TOMS RIVER     PTSUNNY   75  61  60 S7        30.27S
BELMAR         PTSUNNY   73  57  56 SE8       30.26F
$$

PAZ047>061-062-071-301600-
EASTERN PENNSYLVANIA

CITY           SKY/WX    TMP DP  RH WIND       PRES   REMARKS
PHILADELPHIA   CLOUDY    75  62  64 S10       30.25S
ALLENTOWN      CLOUDY    70  59  68 S3        30.26S
SCRANTON       CLOUDY    71  58  63 SW12      30.23F
$$

CTZ002-004>006-009-010-012-RIZ004-006-007-MAZ004-011-015-301600-
SOUTHERN NEW ENGLAND
 IN CT

CITY           SKY/WX    TMP DP  RH WIND       PRES   REMARKS
BRADLEY INTL   PTSUNNY   73  57  57 S9        30.26F
HARTFORD       PTSUNNY   70  58  65 SE8       30.26F
DANBURY        MOSUNNY   71  57  61 S12G17    30.28F
WTRBRY/OXFORD  CLOUDY    70  59  68 S9        30.29F
BRIDGEPORT     CLOUDY    72  61  68 SW7       30.27S
MERIDEN        PTSUNNY   72  57  59 S9        30.27F
NEW HAVEN      MOSUNNY   75  60  59 S10       30.28S
CHESTER        PTSUNNY   70  57  64 S7        30.30S
GROTON         SUNNY     70  59  68 SE10      30.29S
WILLIMANTIC    MOSUNNY   70  56  61 S12       30.29F

 IN RI

CITY           SKY/WX    TMP DP  RH WIND       PRES   REMARKS
PROVIDENCE     MOSUNNY   71  57  61 VRB7      30.30F
BLOCK ISLAND   SUNNY     70  59  68 S9        30.31S
WESTERLY       SUNNY     70  58  65 S10       30.31S

 IN MA

CITY           SKY/WX    TMP DP  RH WIND       PRES   REMARKS
BOSTON         NOT AVBL
WORCESTER      MOSUNNY   67  55  65 S9        30.30S
WESTFIELD      PTSUNNY   71  58  63 S12       30.26F
PROVINCETOWN   SUNNY     68  52  56 S12       30.32S
NANTUCKET      SUNNY     65  52  62 SE10      30.32S
$$

ANZ330-335-338-340-345-350-353-355-301600-
COASTAL MARINE OBSERVATIONS


STATION/POSITION TIME  SKY/WX   TEMP    WIND        PRES    VSBY  WAVE
                                AIR SEA DIR/SP/G                  HT/PER
                 (UTC)          (F)     (DEG/KT/KT) (MB)    (MI)  (FT/S)
NY HARB ENTRANCE NOT AVBL
4S FIRE IS       NOT AVBL
23SW MTP         1500                                 N/A           2/ 9
HUDSON CANYON    1500            72 73  160/  8/  8 1025.1          3/ 8
EXECUTION ROCKS  1500            73 74   90/  4/  4   N/A
WESTERN LI SOUND 1500            71     350/  2/  4   N/A           1
CENTRAL LI SOUND 1400            70 72  180/ 10/ 12   N/A           1/ 2
EASTERN LI SOUND 1400            69 69  150/ 10/ 12   N/A
ROBBINS REEF     1500            70     150/ 11/ 13   N/A
$$


>>>>>>>>>>>>>>>>>>>>>>>>>>>> KEY <<<<<<<<<<<<<<<<<<<<<<<<<<<
>                                                          <
>     SKY/WX - SKY CONDITION/PRESENT WEATHER               <
>     TMP    - TEMPERATURE IN FAHRENHEIT                   <
>     DP     - DEWPOINT IN FAHRENHEIT                      <
>     RH     - RELATIVE HUMIDITY IN PERCENT                <
>     WIND   - DIRECTION AND SPEED IN MPH                  <
>     PRES   - MEAN SEA LEVEL PRESSURE IN INCHES OF HG     <
>     WCI    - WIND CHILL INDEX                            <
>     VSB    - VISIBILITY IN MILES                         <
>     HX     - HEAT INDEX                                  <
>     TC     - TEMPERATURE IN CELSIUS                      <
>     VRB    - VARIABLE WIND DIRECTION                     <
>                                                          <
>>>>>>>>>>>>>>>>>>>>>>>>>>>> KEY <<<<<<<<<<<<<<<<<<<<<<<<<<<




USA.gov is the U.S. government's official web portal to all federal, state and local government web resources and services.